This is the latest recevied weather packets stored in our database for station/object KJ6APE. If no packets are shown the sender has not sent any weather packets the latest 10 day(s).
| Time | Temp. | Humidity | Pressure | Rain* | Wind** | Luminosity | Snow |
|---|---|---|---|---|---|---|---|
| 1777739989 | 14.44° C | 77% | 1013.7 hPa | 0 mm | - | 183 W/m² | - |
| 1777739684 | 14.44° C | 77% | 1013.8 hPa | 0 mm | - | 199 W/m² | - |
| 1777739383 | 14.44° C | 77% | 1013.6 hPa | 0 mm | - | 208 W/m² | - |
| 1777739079 | 14.44° C | 77% | 1013.5 hPa | 0 mm | - | 193 W/m² | - |
| 1777738776 | 14.44° C | 77% | 1013.6 hPa | 0 mm | - | 234 W/m² | - |
| 1777738472 | 14.44° C | 78% | 1013.6 hPa | 0 mm | - | 217 W/m² | - |
| 1777738171 | 14.44° C | 78% | 1013.5 hPa | 0 mm | - | 186 W/m² | - |
| 1777737868 | 14.44° C | 77% | 1013.4 hPa | 0 mm | - | 189 W/m² | - |
| 1777737567 | 14.44° C | 78% | 1013.5 hPa | 0 mm | - | 191 W/m² | - |
| 1777737266 | 13.89° C | 78% | 1013.6 hPa | 0 mm | - | 185 W/m² | - |
| 1777736961 | 13.89° C | 78% | 1013.4 hPa | 0 mm | - | 171 W/m² | - |
| 1777736061 | 13.89° C | 79% | 1013 hPa | 0 mm | - | 145 W/m² | - |
| 1777735757 | 13.89° C | 79% | 1013.2 hPa | 0 mm | - | 137 W/m² | - |
| 1777735455 | 13.89° C | 79% | 1013 hPa | 0 mm | - | 131 W/m² | - |
| 1777735153 | 13.89° C | 79% | 1013.1 hPa | 0 mm | - | 120 W/m² | - |
| 1777734849 | 13.89° C | 79% | 1013 hPa | 0 mm | - | 120 W/m² | - |
| 1777734547 | 13.89° C | 78% | 1013.2 hPa | 0 mm | - | 102 W/m² | - |
| 1777734243 | 13.89° C | 78% | 1013.1 hPa | 0 mm | - | 103 W/m² | - |
| 1777733939 | 13.89° C | 79% | 1012.9 hPa | 0 mm | - | 109 W/m² | - |
| 1777733635 | 13.89° C | 79% | 1012.9 hPa | 0 mm | - | 107 W/m² | - |
| 1777733332 | 13.89° C | 79% | 1012.9 hPa | 0 mm | - | 105 W/m² | - |
| 1777733029 | 13.89° C | 79% | 1012.9 hPa | 0 mm | - | 95 W/m² | - |
| 1777732725 | 13.89° C | 80% | 1012.7 hPa | 0 mm | - | 94 W/m² | - |
| 1777732422 | 13.89° C | 80% | 1012.8 hPa | 0 mm | - | 98 W/m² | - |
| 1777732120 | 13.33° C | 80% | 1012.8 hPa | 0 mm | - | 92 W/m² | - |
* Rain latest hour (hover to see other rain measurements)
** Current wind speed in m/s (hover to see current wind gust speed)